Flag for Canada Weather past 2 weeks in Burlington, Ontario, Canada

Now
66 °F

Mild.


Feels Like: 66 °F
Forecast: 64 / 82 °F
Wind: 1 mph from North

Location: Burlington Piers

Current Time: Aug 30, 2014 at 8:19:36 AM

Latest Report: Aug 30, 2014 at 7:00 AM


Visibility: N/A

Pressure: 30.03 "Hg

Humidity: 83%

Dew point: 61 °F

Location of BurlingtonLocation

Historic Weather in Burlington — Graph

°F

Burlington temperature yesterday

Maximum temperature yesterday: 68 °F (at 11:00 PM)
Minimum temperature yesterday: 58 °F (at 4:00 AM)
Average temperature yesterday: 63 °F

Past Weeks' High & Low Weather Summary

 TemperatureHumidityPressure
High85 °F (Aug 26, 5:00 PM)99% (Aug 24, 2:00 AM)30.19 "Hg (Aug 24, 2:00 AM)
Low54 °F (Aug 15, 8:00 AM)35% (Aug 28, 6:00 PM)29.80 "Hg (Aug 16, 3:00 PM)
Average66 °F78%30.00 "Hg
* Reported Aug 15 7:00 AM — Aug 30 7:00 AM, Burlington, Weather by CustomWeather, © 2014

Note: Actual official high and low records may vary slightly from our data, if they occured in-between our weather recording intervals... More about our weather records

Advertising

Burlington weather history for previous 24 hours

 ConditionsComfort  
Time TempWeatherWind HumidityBarometerVisibility
7:00 AM
Aug 30
66 °FMild.1 mph83%30.03 "HgN/A
6:00 AM67 °FMild.1 mph79%30.02 "HgN/A
5:00 AM65 °FMild.2 mph86%30.03 "HgN/A
4:00 AM64 °FMild.2 mph91%30.04 "HgN/A
3:00 AM65 °FMild.1 mph86%30.05 "HgN/A
2:00 AM65 °FMild.5 mph84%30.07 "HgN/A
1:00 AM66 °FMild.3 mph83%30.08 "HgN/A
12:00 AM67 °FMild.6 mph78%30.09 "HgN/A
11:00 PM
Aug 29
68 °FMild.6 mph76%30.08 "HgN/A
10:00 PM67 °FMild.3 mph80%30.09 "HgN/A
9:00 PM67 °FMild.5 mph79%30.10 "HgN/A
8:00 PM67 °FMild.7 mph81%30.09 "HgN/A
7:00 PM67 °FMild.8 mph79%30.11 "HgN/A
6:00 PM67 °FMild.10 mph75%30.11 "HgN/A
5:00 PM67 °FMild.12 mph72%30.11 "HgN/A
3:00 PM66 °FMild.13 mph75%30.14 "HgN/A
2:00 PM66 °FMild.12 mph74%30.16 "HgN/A
1:00 PM65 °FMild.12 mph74%30.17 "HgN/A
12:00 PM64 °FMild.8 mph79%30.18 "HgN/A
11:00 AM62 °FMild.5 mph76%30.19 "HgN/A
10:00 AM62 °FCool.2 mph74%30.19 "HgN/A
9:00 AM61 °FCool.2 mph73%30.19 "HgN/A
8:00 AM60 °FCool.3 mph72%30.19 "HgN/A
Weather by CustomWeather, © 2014

See weather overviewHow to use our weather pages